Time,TemperatureF,DewpointF,PressureIn,WindDirection,WindDirectionDegrees,WindSpeedMPH,WindSpeedGustMPH,Humidity,HourlyPrecipIn,Conditions,Clouds,dailyrainin,SoftwareType,DateUTC
2013-03-17 00:00:00,15.5,0.2,30.33,SSE,167,0.0,1.0,50,0.00,,---,0.00,VWS V14.01,2013-03-17 08:00:00,
2013-03-17 00:05:00,15.5,0.2,30.33,SSE,167,0.0,1.0,50,0.00,,---,0.00,VWS V14.01,2013-03-17 08:05:00,
2013-03-17 00:10:00,15.6,0.3,30.33,SSE,167,0.0,1.0,50,0.00,,---,0.00,VWS V14.01,2013-03-17 08:10:00,
2013-03-17 00:15:00,15.7,0.4,30.34,SSE,167,0.0,1.0,50,0.00,,---,0.00,VWS V14.01,2013-03-17 08:15:00,
2013-03-17 00:20:00,15.8,0.0,30.34,SSE,167,0.0,1.0,49,0.00,,---,0.00,VWS V14.01,2013-03-17 08:20:00,
2013-03-17 00:25:00,15.8,0.0,30.34,SSE,167,0.0,1.0,49,0.00,,---,0.00,VWS V14.01,2013-03-17 08:25:00,
2013-03-17 00:30:00,15.8,0.0,30.34,SSE,167,0.0,1.0,49,0.00,,---,0.00,VWS V14.01,2013-03-17 08:30:00,
2013-03-17 00:35:00,15.7,-0.1,30.34,SSE,167,0.0,1.0,49,0.00,,---,0.00,VWS V14.01,2013-03-17 08:35:00,
2013-03-17 00:40:00,15.7,-0.1,30.34,SSE,167,0.0,1.0,49,0.00,,---,0.00,VWS V14.01,2013-03-17 08:40:00,
2013-03-17 00:45:00,15.6,0.3,30.34,SSE,167,0.0,1.0,50,0.00,,---,0.00,VWS V14.01,2013-03-17 08:45:00,
2013-03-17 00:50:00,15.5,0.2,30.34,SSE,167,0.0,2.0,50,0.00,,---,0.00,VWS V14.01,2013-03-17 08:50:00,
2013-03-17 00:55:00,15.5,0.2,30.34,SSE,167,1.0,2.0,50,0.00,,---,0.00,VWS V14.01,2013-03-17 08:55:00,
2013-03-17 01:00:00,15.4,0.1,30.34,SSE,167,0.0,2.0,50,0.00,,---,0.00,VWS V14.01,2013-03-17 09:00:00,
2013-03-17 01:05:00,15.4,0.1,30.34,SSE,167,1.0,1.0,50,0.00,,---,0.00,VWS V14.01,2013-03-17 09:05:00,
2013-03-17 01:10:00,15.3,0.0,30.34,SSE,167,1.0,1.0,50,0.00,,---,0.00,VWS V14.01,2013-03-17 09:10:00,
2013-03-17 01:15:00,15.3,0.0,30.35,SSE,167,0.0,1.0,50,0.00,,---,0.00,VWS V14.01,2013-03-17 09:15:00,
2013-03-17 01:20:00,15.3,0.0,30.34,SSE,167,0.0,1.0,50,0.00,,---,0.00,VWS V14.01,2013-03-17 09:20:00,
2013-03-17 01:24:00,15.3,0.0,30.35,SSE,167,0.0,2.0,50,0.00,,---,0.00,VWS V14.01,2013-03-17 09:24:00,
2013-03-17 01:29:00,15.2,-0.1,30.35,SSE,167,1.0,2.0,50,0.00,,---,0.00,VWS V14.01,2013-03-17 09:29:00,
2013-03-17 01:30:00,15.2,-0.1,30.35,SSE,167,1.0,2.0,50,0.00,,---,0.00,VWS V14.01,2013-03-17 09:30:00,
2013-03-17 01:34:00,15.2,-0.1,30.34,SSE,167,0.0,2.0,50,0.00,,---,0.00,VWS V14.01,2013-03-17 09:34:00,
2013-03-17 01:39:00,15.1,-0.2,30.35,SSE,167,1.0,2.0,50,0.00,,---,0.00,VWS V14.01,2013-03-17 09:39:00,
2013-03-17 01:44:00,15.1,-0.2,30.35,SSE,167,0.0,2.0,50,0.00,,---,0.00,VWS V14.01,2013-03-17 09:44:00,
2013-03-17 01:49:00,15.0,-0.3,30.35,SSE,167,1.0,2.0,50,0.00,,---,0.00,VWS V14.01,2013-03-17 09:49:00,
2013-03-17 01:54:00,14.8,0.0,30.35,SSE,167,0.0,2.0,51,0.00,,---,0.00,VWS V14.01,2013-03-17 09:54:00,
2013-03-17 01:59:00,14.6,-0.2,30.35,SSE,167,2.0,4.0,51,0.00,,---,0.00,VWS V14.01,2013-03-17 09:59:00,
2013-03-17 02:00:00,14.6,-0.2,30.35,SSE,167,0.0,4.0,51,0.00,,---,0.00,VWS V14.01,2013-03-17 10:00:00,
2013-03-17 02:04:00,14.6,-0.2,30.35,SSE,167,1.0,4.0,51,0.00,,---,0.00,VWS V14.01,2013-03-17 10:04:00,
2013-03-17 02:09:00,14.6,-0.2,30.35,SSE,167,2.0,4.0,51,0.00,,---,0.00,VWS V14.01,2013-03-17 10:09:00,
2013-03-17 02:14:00,14.6,-0.2,30.35,SSE,167,1.0,4.0,51,0.00,,---,0.00,VWS V14.01,2013-03-17 10:14:00,
2013-03-17 02:19:00,14.6,-0.2,30.35,SSE,167,1.0,4.0,51,0.00,,---,0.00,VWS V14.01,2013-03-17 10:19:00,
2013-03-17 02:24:00,14.5,-0.3,30.35,SSE,167,1.0,4.0,51,0.00,,---,0.00,VWS V14.01,2013-03-17 10:24:00,
2013-03-17 02:29:00,14.4,0.0,30.35,SSE,167,0.0,4.0,52,0.00,,---,0.00,VWS V14.01,2013-03-17 10:29:00,
2013-03-17 02:30:00,14.4,0.0,30.35,SSE,167,1.0,4.0,52,0.00,,---,0.00,VWS V14.01,2013-03-17 10:30:00,
2013-03-17 02:34:00,14.3,-0.1,30.35,SSE,167,0.0,1.0,52,0.00,,---,0.00,VWS V14.01,2013-03-17 10:34:00,
2013-03-17 02:39:00,14.1,-0.3,30.35,SSE,167,0.0,1.0,52,0.00,,---,0.00,VWS V14.01,2013-03-17 10:39:00,
2013-03-17 02:44:00,13.9,-0.5,30.35,SSE,167,0.0,2.0,52,0.00,,---,0.00,VWS V14.01,2013-03-17 10:44:00,
2013-03-17 02:49:00,13.8,-0.6,30.35,SSE,167,0.0,2.0,52,0.00,,---,0.00,VWS V14.01,2013-03-17 10:49:00,
2013-03-17 02:54:00,13.8,-0.6,30.36,SSE,167,0.0,2.0,52,0.00,,---,0.00,VWS V14.01,2013-03-17 10:54:00,
2013-03-17 02:59:00,13.7,-0.2,30.36,SSE,167,0.0,2.0,53,0.00,,---,0.00,VWS V14.01,2013-03-17 10:59:00,
2013-03-17 03:00:00,13.7,-0.2,30.36,SSE,167,0.0,2.0,53,0.00,,---,0.00,VWS V14.01,2013-03-17 11:00:00,
2013-03-17 03:04:00,13.7,-0.2,30.36,SSE,167,1.0,2.0,53,0.00,,---,0.00,VWS V14.01,2013-03-17 11:04:00,
2013-03-17 03:09:00,13.7,-0.2,30.36,SSE,167,0.0,2.0,53,0.00,,---,0.00,VWS V14.01,2013-03-17 11:09:00,
2013-03-17 03:14:00,13.6,-0.3,30.36,SSE,167,0.0,2.0,53,0.00,,---,0.00,VWS V14.01,2013-03-17 11:14:00,
2013-03-17 03:19:00,13.6,-0.3,30.36,SSE,167,0.0,2.0,53,0.00,,---,0.00,VWS V14.01,2013-03-17 11:19:00,
2013-03-17 03:24:00,13.4,-0.5,30.36,SSE,167,0.0,2.0,53,0.00,,---,0.00,VWS V14.01,2013-03-17 11:24:00,
2013-03-17 03:29:00,13.3,-0.2,30.36,SSE,167,0.0,2.0,54,0.00,,---,0.00,VWS V14.01,2013-03-17 11:29:00,
2013-03-17 03:30:00,13.3,-0.2,30.36,SSE,167,0.0,2.0,54,0.00,,---,0.00,VWS V14.01,2013-03-17 11:30:00,
2013-03-17 03:34:00,13.3,-0.2,30.36,SSE,167,0.0,1.0,54,0.00,,---,0.00,VWS V14.01,2013-03-17 11:34:00,
2013-03-17 03:40:00,13.3,-0.2,30.36,SSE,167,0.0,1.0,54,0.00,,---,0.00,VWS V14.01,2013-03-17 11:40:00,
2013-03-17 03:44:00,13.1,-0.4,30.36,SSE,167,0.0,1.0,54,0.00,,---,0.00,VWS V14.01,2013-03-17 11:44:00,
2013-03-17 03:49:00,13.0,-0.5,30.36,SSE,167,1.0,1.0,54,0.00,,---,0.00,VWS V14.01,2013-03-17 11:49:00,
2013-03-17 03:54:00,12.8,-0.7,30.36,SSE,167,0.0,1.0,54,0.00,,---,0.00,VWS V14.01,2013-03-17 11:54:00,
2013-03-17 03:59:00,12.8,-0.7,30.36,SSE,167,0.0,1.0,54,0.00,,---,0.00,VWS V14.01,2013-03-17 11:59:00,
2013-03-17 04:00:00,12.8,-0.7,30.36,SSE,167,0.0,1.0,54,0.00,,---,0.00,VWS V14.01,2013-03-17 12:00:00,
2013-03-17 04:04:00,12.8,-0.7,30.37,SSE,167,0.0,0.0,54,0.00,,---,0.00,VWS V14.01,2013-03-17 12:04:00,
2013-03-17 04:09:00,12.7,-0.4,30.37,SSE,167,0.0,0.0,55,0.00,,---,0.00,VWS V14.01,2013-03-17 12:09:00,
2013-03-17 04:14:00,12.6,-0.5,30.37,SSE,167,0.0,0.0,55,0.00,,---,0.00,VWS V14.01,2013-03-17 12:14:00,
2013-03-17 04:19:00,12.5,-0.6,30.37,SSE,167,0.0,0.0,55,0.00,,---,0.00,VWS V14.01,2013-03-17 12:19:00,
2013-03-17 04:24:00,12.2,-0.9,30.37,SSE,167,0.0,0.0,55,0.00,,---,0.00,VWS V14.01,2013-03-17 12:24:00,
2013-03-17 04:29:00,11.9,-0.8,30.37,SSE,167,0.0,0.0,56,0.00,,---,0.00,VWS V14.01,2013-03-17 12:29:00,
2013-03-17 04:30:00,11.8,-0.9,30.37,SSE,167,0.0,0.0,56,0.00,,---,0.00,VWS V14.01,2013-03-17 12:30:00,
2013-03-17 04:34:00,11.8,-1.2,30.37,SSE,167,0.0,0.0,55,0.00,,---,0.00,VWS V14.01,2013-03-17 12:34:00,
2013-03-17 04:39:00,11.6,-1.4,30.37,SSE,167,0.0,0.0,55,0.00,,---,0.00,VWS V14.01,2013-03-17 12:39:00,
2013-03-17 04:44:00,11.5,-1.5,30.37,SSE,167,0.0,0.0,55,0.00,,---,0.00,VWS V14.01,2013-03-17 12:44:00,
2013-03-17 04:49:00,11.4,-1.2,30.37,SSE,167,0.0,0.0,56,0.00,,---,0.00,VWS V14.01,2013-03-17 12:49:00,
2013-03-17 04:54:00,11.3,-1.3,30.37,SSE,167,0.0,0.0,56,0.00,,---,0.00,VWS V14.01,2013-03-17 12:54:00,
2013-03-17 04:59:00,11.3,-1.3,30.37,SSE,167,0.0,0.0,56,0.00,,---,0.00,VWS V14.01,2013-03-17 12:59:00,
2013-03-17 05:00:00,11.2,-1.4,30.38,SSE,167,0.0,0.0,56,0.00,,---,0.00,VWS V14.01,2013-03-17 13:00:00,
2013-03-17 05:04:00,11.1,-1.5,30.38,SSE,167,0.0,0.0,56,0.00,,---,0.00,VWS V14.01,2013-03-17 13:04:00,
2013-03-17 05:09:00,10.9,-1.7,30.38,SSE,167,0.0,0.0,56,0.00,,---,0.00,VWS V14.01,2013-03-17 13:09:00,
2013-03-17 05:14:00,10.6,-2.0,30.38,SSE,167,0.0,0.0,56,0.00,,---,0.00,VWS V14.01,2013-03-17 13:14:00,
2013-03-17 05:19:00,10.5,-1.7,30.38,SSE,167,0.0,0.0,57,0.00,,---,0.00,VWS V14.01,2013-03-17 13:19:00,
2013-03-17 05:24:00,10.3,-1.9,30.37,SSE,167,0.0,0.0,57,0.00,,---,0.00,VWS V14.01,2013-03-17 13:24:00,
2013-03-17 05:29:00,10.3,-1.5,30.38,SSE,167,0.0,0.0,58,0.00,,---,0.00,VWS V14.01,2013-03-17 13:29:00,
2013-03-17 05:30:00,10.3,-1.5,30.38,SSE,167,0.0,0.0,58,0.00,,---,0.00,VWS V14.01,2013-03-17 13:30:00,
2013-03-17 05:34:00,10.3,-1.5,30.38,SSE,167,0.0,0.0,58,0.00,,---,0.00,VWS V14.01,2013-03-17 13:34:00,
2013-03-17 05:39:00,10.3,-1.9,30.38,SSE,167,0.0,0.0,57,0.00,,---,0.00,VWS V14.01,2013-03-17 13:39:00,
2013-03-17 05:44:00,10.2,-2.0,30.38,SSE,167,0.0,0.0,57,0.00,,---,0.00,VWS V14.01,2013-03-17 13:44:00,
2013-03-17 05:49:00,10.3,-1.9,30.38,SSE,167,0.0,0.0,57,0.00,,---,0.00,VWS V14.01,2013-03-17 13:49:00,
2013-03-17 05:54:00,10.2,-2.0,30.38,SSE,167,0.0,0.0,57,0.00,,---,0.00,VWS V14.01,2013-03-17 13:54:00,
2013-03-17 05:59:00,10.1,-1.7,30.38,SSE,167,0.0,0.0,58,0.00,,---,0.00,VWS V14.01,2013-03-17 13:59:00,
2013-03-17 06:00:00,10.1,-1.7,30.38,SSE,167,0.0,0.0,58,0.00,,---,0.00,VWS V14.01,2013-03-17 14:00:00,
2013-03-17 06:04:00,10.1,-1.7,30.38,SSE,167,0.0,0.0,58,0.00,,---,0.00,VWS V14.01,2013-03-17 14:04:00,
2013-03-17 06:09:00,10.0,-1.8,30.38,SSE,167,0.0,0.0,58,0.00,,---,0.00,VWS V14.01,2013-03-17 14:09:00,
2013-03-17 06:14:00,9.9,-0.5,30.38,SSE,167,0.0,0.0,62,0.00,,---,0.00,VWS V14.01,2013-03-17 14:14:00,
2013-03-17 06:19:00,9.7,-1.4,30.39,SSE,167,0.0,0.0,60,0.00,,---,0.00,VWS V14.01,2013-03-17 14:19:00,
2013-03-17 06:24:00,9.6,-1.8,30.38,SSE,167,0.0,0.0,59,0.00,,---,0.00,VWS V14.01,2013-03-17 14:24:00,
2013-03-17 06:29:00,9.8,-1.6,30.39,SSE,167,0.0,0.0,59,0.00,,---,0.00,VWS V14.01,2013-03-17 14:29:00,
2013-03-17 06:30:00,9.9,-1.5,30.39,SSE,167,0.0,0.0,59,0.00,,---,0.00,VWS V14.01,2013-03-17 14:30:00,
2013-03-17 06:34:00,10.0,-0.4,30.39,SSE,167,0.0,0.0,62,0.00,,---,0.00,VWS V14.01,2013-03-17 14:34:00,
2013-03-17 06:39:00,10.3,-1.5,30.39,SSE,167,0.0,0.0,58,0.00,,---,0.00,VWS V14.01,2013-03-17 14:39:00,
2013-03-17 06:44:00,10.3,-1.9,30.39,SSE,167,0.0,0.0,57,0.00,,---,0.00,VWS V14.01,2013-03-17 14:44:00,
2013-03-17 06:49:00,10.3,-2.3,30.39,SSE,167,0.0,0.0,56,0.00,,---,0.00,VWS V14.01,2013-03-17 14:49:00,
2013-03-17 06:54:00,10.3,-2.3,30.39,SSE,167,0.0,1.0,56,0.00,,---,0.00,VWS V14.01,2013-03-17 14:54:00,
2013-03-17 06:59:00,10.2,-2.0,30.39,SSE,167,0.0,1.0,57,0.00,,---,0.00,VWS V14.01,2013-03-17 14:59:00,
2013-03-17 07:00:00,10.1,-2.1,30.39,SSE,167,0.0,1.0,57,0.00,,---,0.00,VWS V14.01,2013-03-17 15:00:00,
2013-03-17 07:04:00,10.0,-1.1,30.39,SSE,167,0.0,0.0,60,0.00,,---,0.00,VWS V14.01,2013-03-17 15:04:00,
2013-03-17 07:09:00,10.1,-1.7,30.39,SSE,167,0.0,0.0,58,0.00,,---,0.00,VWS V14.01,2013-03-17 15:09:00,
2013-03-17 07:14:00,10.0,-2.2,30.39,SSE,167,0.0,0.0,57,0.00,,---,0.00,VWS V14.01,2013-03-17 15:14:00,
2013-03-17 07:19:00,9.8,-2.4,30.39,SSE,167,0.0,0.0,57,0.00,,---,0.00,VWS V14.01,2013-03-17 15:19:00,
2013-03-17 07:24:00,9.7,-2.5,30.39,SSE,167,0.0,0.0,57,0.00,,---,0.00,VWS V14.01,2013-03-17 15:24:00,
2013-03-17 07:29:00,9.6,-2.6,30.39,SSE,167,0.0,0.0,57,0.00,,---,0.00,VWS V14.01,2013-03-17 15:29:00,
2013-03-17 07:30:00,9.6,-2.6,30.39,SSE,167,0.0,0.0,57,0.00,,---,0.00,VWS V14.01,2013-03-17 15:30:00,
2013-03-17 07:34:00,9.6,-2.6,30.39,SSE,167,0.0,1.0,57,0.00,,---,0.00,VWS V14.01,2013-03-17 15:34:00,
2013-03-17 07:39:00,9.5,-2.7,30.39,SSE,167,0.0,1.0,57,0.00,,---,0.00,VWS V14.01,2013-03-17 15:39:00,
2013-03-17 07:44:00,9.6,-2.6,30.39,SSE,167,0.0,1.0,57,0.00,,---,0.00,VWS V14.01,2013-03-17 15:44:00,
2013-03-17 07:49:00,9.5,-1.9,30.39,SSE,167,0.0,1.0,59,0.00,,---,0.00,VWS V14.01,2013-03-17 15:49:00,
2013-03-17 07:54:00,9.8,-2.0,30.40,SSE,167,0.0,1.0,58,0.00,,---,0.00,VWS V14.01,2013-03-17 15:54:00,
2013-03-17 07:59:00,9.8,-2.7,30.40,SSE,167,0.0,1.0,56,0.00,,---,0.00,VWS V14.01,2013-03-17 15:59:00,
2013-03-17 08:00:00,9.8,-2.4,30.40,SSE,167,0.0,1.0,57,0.00,,---,0.00,VWS V14.01,2013-03-17 16:00:00,
2013-03-17 08:04:00,9.8,-2.4,30.40,SSE,167,0.0,0.0,57,0.00,,---,0.00,VWS V14.01,2013-03-17 16:04:00,
2013-03-17 08:09:00,9.6,-2.9,30.40,SSE,167,0.0,0.0,56,0.00,,---,0.00,VWS V14.01,2013-03-17 16:09:00,
2013-03-17 08:14:00,9.5,-1.2,30.40,SSE,167,0.0,0.0,61,0.00,,---,0.00,VWS V14.01,2013-03-17 16:14:00,
2013-03-17 08:19:00,9.4,-2.8,30.40,SSE,167,0.0,0.0,57,0.00,,---,0.00,VWS V14.01,2013-03-17 16:19:00,
2013-03-17 08:24:00,9.1,-2.7,30.40,SSE,167,0.0,1.0,58,0.00,,---,0.00,VWS V14.01,2013-03-17 16:24:00,
2013-03-17 08:29:00,8.6,-2.8,30.40,SSE,167,0.0,1.0,59,0.00,,---,0.00,VWS V14.01,2013-03-17 16:29:00,
2013-03-17 08:30:00,8.5,-2.9,30.40,SSE,167,0.0,1.0,59,0.00,,---,0.00,VWS V14.01,2013-03-17 16:30:00,
2013-03-17 08:34:00,8.3,-2.4,30.40,SSE,167,0.0,0.0,61,0.00,,---,0.00,VWS V14.01,2013-03-17 16:34:00,
2013-03-17 08:39:00,8.3,-2.0,30.40,SSE,167,0.0,1.0,62,0.00,,---,0.00,VWS V14.01,2013-03-17 16:39:00,
2013-03-17 08:44:00,8.3,-2.0,30.40,SSE,167,0.0,1.0,62,0.00,,---,0.00,VWS V14.01,2013-03-17 16:44:00,
2013-03-17 08:49:00,8.1,-2.5,30.40,SSE,167,0.0,1.0,61,0.00,,---,0.00,VWS V14.01,2013-03-17 16:49:00,
2013-03-17 08:54:00,7.5,-1.8,30.41,SSE,167,0.0,1.0,65,0.00,,---,0.00,VWS V14.01,2013-03-17 16:54:00,
2013-03-17 08:59:00,7.3,-1.7,30.41,SSE,167,0.0,1.0,66,0.00,,---,0.00,VWS V14.01,2013-03-17 16:59:00,
2013-03-17 09:00:00,7.1,-2.2,30.41,SSE,167,0.0,1.0,65,0.00,,---,0.00,VWS V14.01,2013-03-17 17:00:00,
2013-03-17 09:04:00,6.8,-2.8,30.41,SSE,167,0.0,0.0,64,0.00,,---,0.00,VWS V14.01,2013-03-17 17:04:00,
2013-03-17 09:09:00,6.1,-3.1,30.41,SSE,167,0.0,1.0,65,0.00,,---,0.00,VWS V14.01,2013-03-17 17:09:00,
2013-03-17 09:14:00,5.6,-3.6,30.41,SSE,167,1.0,1.0,65,0.00,,---,0.00,VWS V14.01,2013-03-17 17:14:00,
2013-03-17 09:19:00,5.5,-3.4,30.41,SSE,167,1.0,1.0,66,0.00,,---,0.00,VWS V14.01,2013-03-17 17:19:00,
2013-03-17 09:24:00,5.3,-3.9,30.41,SSE,167,2.0,2.0,65,0.00,,---,0.00,VWS V14.01,2013-03-17 17:24:00,
2013-03-17 09:29:00,4.9,-4.0,30.41,SE,124,2.0,2.0,66,0.00,,---,0.00,VWS V14.01,2013-03-17 17:29:00,
2013-03-17 09:30:00,4.8,-4.1,30.41,SE,124,1.0,2.0,66,0.00,,---,0.00,VWS V14.01,2013-03-17 17:30:00,
2013-03-17 09:34:00,4.7,-4.2,30.41,SE,129,1.0,2.0,66,0.00,,---,0.00,VWS V14.01,2013-03-17 17:34:00,
2013-03-17 09:39:00,4.6,-3.9,30.41,ESE,111,1.0,4.0,67,0.00,,---,0.00,VWS V14.01,2013-03-17 17:39:00,
2013-03-17 09:44:00,4.9,-3.6,30.41,ESE,111,1.0,4.0,67,0.00,,---,0.00,VWS V14.01,2013-03-17 17:44:00,
2013-03-17 09:49:00,4.9,-4.0,30.41,ESE,111,2.0,4.0,66,0.00,,---,0.00,VWS V14.01,2013-03-17 17:49:00,
2013-03-17 09:54:00,4.9,-4.0,30.41,ESE,111,2.0,4.0,66,0.00,,---,0.00,VWS V14.01,2013-03-17 17:54:00,
2013-03-17 09:59:00,5.2,-3.7,30.41,ESE,111,2.0,4.0,66,0.00,,---,0.00,VWS V14.01,2013-03-17 17:59:00,
2013-03-17 10:00:00,5.4,-3.5,30.41,ESE,111,1.0,4.0,66,0.00,,---,0.00,VWS V14.01,2013-03-17 18:00:00,
2013-03-17 10:04:00,5.5,-3.4,30.41,ESE,111,1.0,2.0,66,0.00,,---,0.00,VWS V14.01,2013-03-17 18:04:00,
2013-03-17 10:09:00,5.8,-3.1,30.41,ESE,111,0.0,2.0,66,0.00,,---,0.00,VWS V14.01,2013-03-17 18:09:00,
2013-03-17 10:14:00,5.9,-3.3,30.41,ESE,111,1.0,4.0,65,0.00,,---,0.00,VWS V14.01,2013-03-17 18:14:00,
2013-03-17 10:19:00,6.0,-3.2,30.41,ESE,111,1.0,4.0,65,0.00,,---,0.00,VWS V14.01,2013-03-17 18:19:00,
2013-03-17 10:24:00,6.1,-3.5,30.42,ESE,111,0.0,4.0,64,0.00,,---,0.00,VWS V14.01,2013-03-17 18:24:00,
2013-03-17 10:29:00,6.3,-3.3,30.41,ESE,111,2.0,4.0,64,0.00,,---,0.00,VWS V14.01,2013-03-17 18:29:00,
2013-03-17 10:30:00,6.5,-3.1,30.41,ESE,111,2.0,4.0,64,0.00,,---,0.00,VWS V14.01,2013-03-17 18:30:00,
2013-03-17 10:34:00,6.4,-3.2,30.41,ESE,111,1.0,4.0,64,0.00,,---,0.00,VWS V14.01,2013-03-17 18:34:00,
2013-03-17 10:39:00,6.6,-3.0,30.41,ESE,111,0.0,4.0,64,0.00,,---,0.00,VWS V14.01,2013-03-17 18:39:00,
2013-03-17 10:44:00,6.9,-3.0,30.41,ESE,111,0.0,4.0,63,0.00,,---,0.00,VWS V14.01,2013-03-17 18:44:00,
2013-03-17 10:49:00,7.2,-2.7,30.41,ESE,111,1.0,4.0,63,0.00,,---,0.00,VWS V14.01,2013-03-17 18:49:00,
2013-03-17 10:54:00,7.5,-2.8,30.41,ESE,111,2.0,4.0,62,0.00,,---,0.00,VWS V14.01,2013-03-17 18:54:00,
2013-03-17 10:59:00,7.8,-2.8,30.41,ESE,111,1.0,4.0,61,0.00,,---,0.00,VWS V14.01,2013-03-17 18:59:00,
2013-03-17 11:00:00,8.0,-2.7,30.42,ESE,111,1.0,4.0,61,0.00,,---,0.00,VWS V14.01,2013-03-17 19:00:00,
2013-03-17 11:04:00,8.1,-2.5,30.41,ESE,111,0.0,4.0,61,0.00,,---,0.00,VWS V14.01,2013-03-17 19:04:00,
2013-03-17 11:09:00,8.2,-2.8,30.41,ESE,111,0.0,4.0,60,0.00,,---,0.00,VWS V14.01,2013-03-17 19:09:00,
2013-03-17 11:14:00,8.3,-2.7,30.42,ESE,111,2.0,4.0,60,0.00,,---,0.00,VWS V14.01,2013-03-17 19:14:00,
2013-03-17 11:19:00,8.5,-2.5,30.42,ESE,111,2.0,4.0,60,0.00,,---,0.00,VWS V14.01,2013-03-17 19:19:00,
2013-03-17 11:24:00,8.7,-2.3,30.42,ESE,111,2.0,4.0,60,0.00,,---,0.00,VWS V14.01,2013-03-17 19:24:00,
2013-03-17 11:29:00,8.9,-2.5,30.42,ESE,111,0.0,4.0,59,0.00,,---,0.00,VWS V14.01,2013-03-17 19:29:00,
2013-03-17 11:30:00,8.9,-2.5,30.42,ESE,111,4.0,4.0,59,0.00,,---,0.00,VWS V14.01,2013-03-17 19:30:00,
2013-03-17 11:34:00,8.9,-2.5,30.42,ESE,111,1.0,4.0,59,0.00,,---,0.00,VWS V14.01,2013-03-17 19:34:00,
2013-03-17 11:39:00,9.0,-2.8,30.42,ESE,111,1.0,4.0,58,0.00,,---,0.00,VWS V14.01,2013-03-17 19:39:00,
2013-03-17 11:44:00,9.1,-2.7,30.42,ESE,111,2.0,5.0,58,0.00,,---,0.00,VWS V14.01,2013-03-17 19:44:00,
2013-03-17 11:49:00,9.4,-2.0,30.42,ESE,111,1.0,5.0,59,0.00,,---,0.00,VWS V14.01,2013-03-17 19:49:00,
2013-03-17 11:54:00,9.8,-2.4,30.42,ESE,111,0.0,5.0,57,0.00,,---,0.00,VWS V14.01,2013-03-17 19:54:00,
2013-03-17 11:59:00,9.6,-2.9,30.42,ESE,115,0.0,5.0,56,0.00,,---,0.00,VWS V14.01,2013-03-17 19:59:00,
2013-03-17 12:00:00,9.6,-2.6,30.42,ESE,115,2.0,5.0,57,0.00,,---,0.00,VWS V14.01,2013-03-17 20:00:00,
2013-03-17 12:04:00,9.8,-2.4,30.42,ESE,115,2.0,2.0,57,0.00,,---,0.00,VWS V14.01,2013-03-17 20:04:00,
2013-03-17 12:09:00,9.8,-2.4,30.42,ESE,115,2.0,2.0,57,0.00,,---,0.00,VWS V14.01,2013-03-17 20:09:00,
2013-03-17 12:14:00,9.9,-2.7,30.42,ESE,115,1.0,2.0,56,0.00,,---,0.00,VWS V14.01,2013-03-17 20:14:00,
2013-03-17 12:19:00,10.0,-2.5,30.42,ESE,115,1.0,4.0,56,0.00,,---,0.00,VWS V14.01,2013-03-17 20:19:00,
2013-03-17 12:24:00,10.3,-2.3,30.42,ESE,115,1.0,4.0,56,0.00,,---,0.00,VWS V14.01,2013-03-17 20:24:00,
2013-03-17 12:29:00,10.5,-2.5,30.43,ESE,116,1.0,4.0,55,0.00,,---,0.00,VWS V14.01,2013-03-17 20:29:00,
2013-03-17 12:30:00,10.6,-2.4,30.43,ESE,116,1.0,4.0,55,0.00,,---,0.00,VWS V14.01,2013-03-17 20:30:00,
2013-03-17 12:34:00,10.7,-2.3,30.42,ESE,116,1.0,4.0,55,0.00,,---,0.00,VWS V14.01,2013-03-17 20:34:00,
2013-03-17 12:38:00,11.0,-2.0,30.43,ESE,116,0.0,4.0,55,0.00,,---,0.00,VWS V14.01,2013-03-17 20:38:00,
2013-03-17 12:43:00,11.3,-2.1,30.42,ESE,116,0.0,4.0,54,0.00,,---,0.00,VWS V14.01,2013-03-17 20:43:00,
2013-03-17 12:48:00,11.7,-1.7,30.42,ESE,116,1.0,4.0,54,0.00,,---,0.00,VWS V14.01,2013-03-17 20:48:00,
2013-03-17 12:53:00,12.0,-1.8,30.42,ESE,116,1.0,4.0,53,0.00,,---,0.00,VWS V14.01,2013-03-17 20:53:00,
2013-03-17 12:58:00,12.2,-1.6,30.42,ESE,116,1.0,4.0,53,0.00,,---,0.00,VWS V14.01,2013-03-17 20:58:00,
2013-03-17 13:00:00,12.3,-1.6,30.42,ESE,116,1.0,4.0,53,0.00,,---,0.00,VWS V14.01,2013-03-17 21:00:00,
2013-03-17 13:03:00,12.5,-1.4,30.42,ESE,116,2.0,2.0,53,0.00,,---,0.00,VWS V14.01,2013-03-17 21:03:00,
2013-03-17 13:08:00,12.4,-2.3,30.42,SSE,160,4.0,5.0,51,0.00,,---,0.00,VWS V14.01,2013-03-17 21:08:00,
2013-03-17 13:13:00,11.6,-2.6,30.42,South,169,0.0,5.0,52,0.00,,---,0.00,VWS V14.01,2013-03-17 21:13:00,
2013-03-17 13:18:00,11.8,-2.0,30.42,South,169,0.0,5.0,53,0.00,,---,0.00,VWS V14.01,2013-03-17 21:18:00,
2013-03-17 13:23:00,12.6,-0.9,30.42,South,169,1.0,5.0,54,0.00,,---,0.00,VWS V14.01,2013-03-17 21:23:00,
2013-03-17 13:28:00,13.1,-1.2,30.42,South,169,0.0,5.0,52,0.00,,---,0.00,VWS V14.01,2013-03-17 21:28:00,
2013-03-17 13:30:00,13.2,-1.1,30.42,South,169,2.0,5.0,52,0.00,,---,0.00,VWS V14.01,2013-03-17 21:30:00,
2013-03-17 13:33:00,13.2,-1.5,30.42,South,169,0.0,2.0,51,0.00,,---,0.00,VWS V14.01,2013-03-17 21:33:00,
2013-03-17 13:38:00,13.4,-1.3,30.42,SE,137,0.0,4.0,51,0.00,,---,0.00,VWS V14.01,2013-03-17 21:38:00,
2013-03-17 13:43:00,13.8,-0.6,30.42,SE,137,0.0,4.0,52,0.00,,---,0.00,VWS V14.01,2013-03-17 21:43:00,
2013-03-17 13:48:00,13.9,-1.3,30.42,SE,143,4.0,4.0,50,0.00,,---,0.00,VWS V14.01,2013-03-17 21:48:00,
2013-03-17 13:53:00,14.0,-1.2,30.42,SE,143,5.0,5.0,50,0.00,,---,0.00,VWS V14.01,2013-03-17 21:53:00,
2013-03-17 13:58:00,14.1,-0.7,30.42,SE,146,1.0,5.0,51,0.00,,---,0.00,VWS V14.01,2013-03-17 21:58:00,
2013-03-17 14:00:00,14.1,-1.1,30.42,SE,146,2.0,5.0,50,0.00,,---,0.00,VWS V14.01,2013-03-17 22:00:00,
2013-03-17 14:03:00,14.2,-1.0,30.42,SE,146,4.0,4.0,50,0.00,,---,0.00,VWS V14.01,2013-03-17 22:03:00,
2013-03-17 14:08:00,13.9,-1.3,30.42,SE,146,1.0,4.0,50,0.00,,---,0.00,VWS V14.01,2013-03-17 22:08:00,
2013-03-17 14:13:00,13.9,-0.9,30.42,SSE,164,2.0,5.0,51,0.00,,---,0.00,VWS V14.01,2013-03-17 22:13:00,
2013-03-17 14:18:00,13.7,-1.5,30.42,SSE,165,2.0,5.0,50,0.00,,---,0.00,VWS V14.01,2013-03-17 22:18:00,
2013-03-17 14:23:00,13.8,-1.4,30.41,SSE,165,0.0,5.0,50,0.00,,---,0.00,VWS V14.01,2013-03-17 22:23:00,
2013-03-17 14:28:00,13.8,-1.4,30.41,SSE,168,0.0,5.0,50,0.00,,---,0.00,VWS V14.01,2013-03-17 22:28:00,
2013-03-17 14:30:00,13.8,-1.4,30.41,SSE,168,2.0,5.0,50,0.00,,---,0.00,VWS V14.01,2013-03-17 22:30:00,
2013-03-17 14:33:00,13.9,-0.9,30.41,SSE,168,1.0,4.0,51,0.00,,---,0.00,VWS V14.01,2013-03-17 22:33:00,
2013-03-17 14:38:00,13.9,-1.3,30.41,South,171,2.0,5.0,50,0.00,,---,0.00,VWS V14.01,2013-03-17 22:38:00,
2013-03-17 14:43:00,14.0,-1.2,30.41,SSE,165,0.0,5.0,50,0.00,,---,0.00,VWS V14.01,2013-03-17 22:43:00,
2013-03-17 14:48:00,14.2,-1.0,30.41,SSE,165,1.0,5.0,50,0.00,,---,0.00,VWS V14.01,2013-03-17 22:48:00,
2013-03-17 14:53:00,14.4,-0.8,30.41,SSE,165,4.0,5.0,50,0.00,,---,0.00,VWS V14.01,2013-03-17 22:53:00,
2013-03-17 14:58:00,14.4,-0.8,30.41,SSE,166,2.0,5.0,50,0.00,,---,0.00,VWS V14.01,2013-03-17 22:58:00,
2013-03-17 15:00:00,14.5,-0.7,30.41,SSE,166,0.0,5.0,50,0.00,,---,0.00,VWS V14.01,2013-03-17 23:00:00,
2013-03-17 15:03:00,14.6,-0.6,30.41,SSE,166,1.0,4.0,50,0.00,,---,0.00,VWS V14.01,2013-03-17 23:03:00,
2013-03-17 15:08:00,14.8,-0.5,30.40,SSE,167,1.0,4.0,50,0.00,,---,0.00,VWS V14.01,2013-03-17 23:08:00,
2013-03-17 15:13:00,15.0,-0.3,30.40,SSE,168,4.0,5.0,50,0.00,,---,0.00,VWS V14.01,2013-03-17 23:13:00,
2013-03-17 15:18:00,15.2,-0.1,30.40,South,169,1.0,5.0,50,0.00,,---,0.00,VWS V14.01,2013-03-17 23:18:00,
2013-03-17 15:23:00,15.3,-0.4,30.40,South,169,1.0,5.0,49,0.00,,---,0.00,VWS V14.01,2013-03-17 23:23:00,
2013-03-17 15:28:00,15.3,-0.4,30.40,South,169,4.0,5.0,49,0.00,,---,0.00,VWS V14.01,2013-03-17 23:28:00,
2013-03-17 15:30:00,15.4,0.1,30.40,South,169,2.0,5.0,50,0.00,,---,0.00,VWS V14.01,2013-03-17 23:30:00,
2013-03-17 15:33:00,15.4,-0.3,30.40,South,179,2.0,5.0,49,0.00,,---,0.00,VWS V14.01,2013-03-17 23:33:00,
2013-03-17 15:38:00,15.4,-0.3,30.39,South,176,2.0,5.0,49,0.00,,---,0.00,VWS V14.01,2013-03-17 23:38:00,
2013-03-17 15:43:00,15.7,0.4,30.39,South,180,1.0,5.0,50,0.00,,---,0.00,VWS V14.01,2013-03-17 23:43:00,
2013-03-17 15:48:00,15.8,-0.4,30.39,South,182,1.0,5.0,48,0.00,,---,0.00,VWS V14.01,2013-03-17 23:48:00,
2013-03-17 15:53:00,15.7,0.4,30.39,South,172,1.0,5.0,50,0.00,,---,0.00,VWS V14.01,2013-03-17 23:53:00,
2013-03-17 15:58:00,15.5,-0.2,30.39,South,175,4.0,5.0,49,0.00,,---,0.00,VWS V14.01,2013-03-17 23:58:00,
2013-03-17 16:00:00,15.6,-0.2,30.39,South,182,3.0,5.0,49,0.00,,---,0.00,VWS V14.01,2013-03-18 00:00:00,
2013-03-17 16:03:00,15.7,-0.1,30.39,South,182,1.0,3.0,49,0.00,,---,0.00,VWS V14.01,2013-03-18 00:03:00,
2013-03-17 16:08:00,15.9,-0.3,30.38,South,182,3.0,3.0,48,0.00,,---,0.00,VWS V14.01,2013-03-18 00:08:00,
2013-03-17 16:13:00,16.2,0.4,30.38,South,188,2.0,5.0,49,0.00,,---,0.00,VWS V14.01,2013-03-18 00:13:00,
2013-03-17 16:18:00,16.2,0.0,30.38,SSW,198,2.0,5.0,48,0.00,,---,0.00,VWS V14.01,2013-03-18 00:18:00,
2013-03-17 16:23:00,16.0,0.2,30.38,SSW,198,0.0,5.0,49,0.00,,---,0.00,VWS V14.01,2013-03-18 00:23:00,
2013-03-17 16:28:00,16.3,0.5,30.38,SSW,198,0.0,5.0,49,0.00,,---,0.00,VWS V14.01,2013-03-18 00:28:00,
2013-03-17 16:30:00,16.4,0.2,30.38,SSW,198,0.0,5.0,48,0.00,,---,0.00,VWS V14.01,2013-03-18 00:30:00,
2013-03-17 16:33:00,16.5,0.7,30.38,SSW,198,1.0,3.0,49,0.00,,---,0.00,VWS V14.01,2013-03-18 00:33:00,
2013-03-17 16:38:00,16.6,0.3,30.37,SSW,198,2.0,4.0,48,0.00,,---,0.00,VWS V14.01,2013-03-18 00:38:00,
2013-03-17 16:43:00,16.5,0.2,30.37,SSW,198,1.0,4.0,48,0.00,,---,0.00,VWS V14.01,2013-03-18 00:43:00,
2013-03-17 16:48:00,16.6,0.3,30.37,SSW,198,2.0,4.0,48,0.00,,---,0.00,VWS V14.01,2013-03-18 00:48:00,
2013-03-17 16:53:00,16.8,0.5,30.37,SSW,198,1.0,4.0,48,0.00,,---,0.00,VWS V14.01,2013-03-18 00:53:00,
2013-03-17 16:58:00,16.9,0.6,30.37,SSW,198,0.0,4.0,48,0.00,,---,0.00,VWS V14.01,2013-03-18 00:58:00,
2013-03-17 17:00:00,17.0,0.7,30.37,SSW,198,0.0,4.0,48,0.00,,---,0.00,VWS V14.01,2013-03-18 01:00:00,
2013-03-17 17:03:00,17.1,0.8,30.37,SSW,198,0.0,0.0,48,0.00,,---,0.00,VWS V14.01,2013-03-18 01:03:00,
2013-03-17 17:08:00,17.3,0.5,30.37,SSW,198,0.0,2.0,47,0.00,,---,0.00,VWS V14.01,2013-03-18 01:08:00,
2013-03-17 17:13:00,17.5,1.2,30.37,SSW,199,2.0,4.0,48,0.00,,---,0.00,VWS V14.01,2013-03-18 01:13:00,
2013-03-17 17:18:00,17.2,0.4,30.37,SSW,202,0.0,4.0,47,0.00,,---,0.00,VWS V14.01,2013-03-18 01:18:00,
2013-03-17 17:23:00,17.2,0.4,30.37,SSW,202,2.0,4.0,47,0.00,,---,0.00,VWS V14.01,2013-03-18 01:23:00,
2013-03-17 17:28:00,17.1,0.3,30.37,SSW,202,0.0,4.0,47,0.00,,---,0.00,VWS V14.01,2013-03-18 01:28:00,
2013-03-17 17:30:00,16.8,0.1,30.36,SSW,198,1.0,4.0,47,0.00,,---,0.00,VWS V14.01,2013-03-18 01:30:00,
2013-03-17 17:33:00,16.6,-0.1,30.36,SSW,198,1.0,3.0,47,0.00,,---,0.00,VWS V14.01,2013-03-18 01:33:00,
2013-03-17 17:38:00,16.3,-0.4,30.36,SSW,199,0.0,3.0,47,0.00,,---,0.00,VWS V14.01,2013-03-18 01:38:00,
2013-03-17 17:43:00,16.4,0.2,30.36,SSW,199,0.0,3.0,48,0.00,,---,0.00,VWS V14.01,2013-03-18 01:43:00,
2013-03-17 17:48:00,16.3,0.1,30.36,SSW,199,1.0,3.0,48,0.00,,---,0.00,VWS V14.01,2013-03-18 01:48:00,
2013-03-17 17:53:00,16.3,0.1,30.36,SSW,199,1.0,3.0,48,0.00,,---,0.00,VWS V14.01,2013-03-18 01:53:00,
2013-03-17 17:58:00,16.3,-0.4,30.36,SSW,199,0.0,3.0,47,0.00,,---,0.00,VWS V14.01,2013-03-18 01:58:00,
2013-03-17 18:00:00,16.4,0.2,30.36,SSW,199,1.0,3.0,48,0.00,,---,0.00,VWS V14.01,2013-03-18 02:00:00,
2013-03-17 18:03:00,16.4,-0.3,30.36,SSW,199,0.0,2.0,47,0.00,,---,0.00,VWS V14.01,2013-03-18 02:03:00,
2013-03-17 18:08:00,16.4,0.2,30.36,SSW,199,0.0,2.0,48,0.00,,---,0.00,VWS V14.01,2013-03-18 02:08:00,
2013-03-17 18:13:00,16.2,0.0,30.36,SSW,199,0.0,2.0,48,0.00,,---,0.00,VWS V14.01,2013-03-18 02:13:00,
2013-03-17 18:18:00,16.1,0.3,30.36,SSW,199,0.0,2.0,49,0.00,,---,0.00,VWS V14.01,2013-03-18 02:18:00,
2013-03-17 18:23:00,15.8,0.0,30.36,SSW,199,0.0,2.0,49,0.00,,---,0.00,VWS V14.01,2013-03-18 02:23:00,
2013-03-17 18:28:00,15.6,0.3,30.35,SSW,199,0.0,2.0,50,0.00,,---,0.00,VWS V14.01,2013-03-18 02:28:00,
2013-03-17 18:30:00,15.4,0.1,30.35,SSW,199,0.0,2.0,50,0.00,,---,0.00,VWS V14.01,2013-03-18 02:30:00,
2013-03-17 18:33:00,15.3,0.0,30.35,SSW,199,0.0,0.0,50,0.00,,---,0.00,VWS V14.01,2013-03-18 02:33:00,
2013-03-17 18:38:00,15.2,-0.1,30.35,SSW,199,0.0,0.0,50,0.00,,---,0.00,VWS V14.01,2013-03-18 02:38:00,
2013-03-17 18:43:00,15.1,-0.2,30.35,SSW,199,0.0,1.0,50,0.00,,---,0.00,VWS V14.01,2013-03-18 02:43:00,
2013-03-17 18:48:00,15.0,-0.3,30.35,SSW,199,0.0,1.0,50,0.00,,---,0.00,VWS V14.01,2013-03-18 02:48:00,
2013-03-17 18:53:00,14.9,-0.4,30.35,SSW,199,0.0,1.0,50,0.00,,---,0.00,VWS V14.01,2013-03-18 02:53:00,
2013-03-17 18:58:00,14.9,0.1,30.34,SSW,199,0.0,1.0,51,0.00,,---,0.00,VWS V14.01,2013-03-18 02:58:00,
2013-03-17 19:00:00,14.8,-0.5,30.34,SSW,199,0.0,1.0,50,0.00,,---,0.00,VWS V14.01,2013-03-18 03:00:00,
2013-03-17 19:03:00,14.8,-0.5,30.34,SSW,199,0.0,0.0,50,0.00,,---,0.00,VWS V14.01,2013-03-18 03:03:00,
2013-03-17 19:08:00,14.6,-0.6,30.34,SSW,199,0.0,0.0,50,0.00,,---,0.00,VWS V14.01,2013-03-18 03:08:00,
2013-03-17 19:13:00,14.6,-0.6,30.34,SSW,199,0.0,0.0,50,0.00,,---,0.00,VWS V14.01,2013-03-18 03:13:00,
2013-03-17 19:18:00,14.5,-0.7,30.34,SSW,199,0.0,0.0,50,0.00,,---,0.00,VWS V14.01,2013-03-18 03:18:00,
2013-03-17 19:23:00,14.4,-0.4,30.34,SSW,199,0.0,0.0,51,0.00,,---,0.00,VWS V14.01,2013-03-18 03:23:00,
2013-03-17 19:28:00,14.3,-0.5,30.34,SSW,199,0.0,0.0,51,0.00,,---,0.00,VWS V14.01,2013-03-18 03:28:00,
2013-03-17 19:30:00,14.2,-0.6,30.34,SSW,199,0.0,0.0,51,0.00,,---,0.00,VWS V14.01,2013-03-18 03:30:00,
2013-03-17 19:33:00,14.2,-0.6,30.34,SSW,199,0.0,0.0,51,0.00,,---,0.00,VWS V14.01,2013-03-18 03:33:00,
2013-03-17 19:38:00,14.0,-0.8,30.34,SSW,199,0.0,0.0,51,0.00,,---,0.00,VWS V14.01,2013-03-18 03:38:00,
2013-03-17 19:43:00,13.8,-1.0,30.34,SSW,199,0.0,0.0,51,0.00,,---,0.00,VWS V14.01,2013-03-18 03:43:00,
2013-03-17 19:48:00,13.5,-1.2,30.34,SSW,199,0.0,0.0,51,0.00,,---,0.00,VWS V14.01,2013-03-18 03:48:00,
2013-03-17 19:53:00,13.2,-1.1,30.34,SSW,199,0.0,0.0,52,0.00,,---,0.00,VWS V14.01,2013-03-18 03:53:00,
2013-03-17 19:58:00,13.0,-1.3,30.34,SSW,199,0.0,0.0,52,0.00,,---,0.00,VWS V14.01,2013-03-18 03:58:00,
2013-03-17 20:00:00,13.0,-1.3,30.34,SSW,199,0.0,0.0,52,0.00,,---,0.00,VWS V14.01,2013-03-18 04:00:00,
2013-03-17 20:05:00,13.0,-0.9,30.34,SSW,199,0.0,1.0,53,0.00,,---,0.00,VWS V14.01,2013-03-18 04:05:00,
2013-03-17 20:10:00,13.0,-0.9,30.34,SSW,199,0.0,1.0,53,0.00,,---,0.00,VWS V14.01,2013-03-18 04:10:00,
2013-03-17 20:15:00,13.0,-0.9,30.34,SSW,199,0.0,1.0,53,0.00,,---,0.00,VWS V14.01,2013-03-18 04:15:00,
2013-03-17 20:20:00,13.1,-0.8,30.34,SSW,199,1.0,1.0,53,0.00,,---,0.00,VWS V14.01,2013-03-18 04:20:00,
2013-03-17 20:25:00,13.0,-0.9,30.34,SSW,199,0.0,1.0,53,0.00,,---,0.00,VWS V14.01,2013-03-18 04:25:00,
2013-03-17 20:30:00,12.9,-1.0,30.34,SSW,199,0.0,1.0,53,0.00,,---,0.00,VWS V14.01,2013-03-18 04:30:00,
2013-03-17 20:35:00,12.8,-1.1,30.33,SSW,199,0.0,0.0,53,0.00,,---,0.00,VWS V14.01,2013-03-18 04:35:00,
2013-03-17 20:40:00,12.8,-1.1,30.33,SSW,199,0.0,0.0,53,0.00,,---,0.00,VWS V14.01,2013-03-18 04:40:00,
2013-03-17 20:45:00,12.7,-0.8,30.33,SSW,199,0.0,0.0,54,0.00,,---,0.00,VWS V14.01,2013-03-18 04:45:00,
2013-03-17 20:50:00,12.7,-0.8,30.33,SSW,199,0.0,0.0,54,0.00,,---,0.00,VWS V14.01,2013-03-18 04:50:00,
2013-03-17 20:55:00,12.6,-0.9,30.33,SSW,199,0.0,1.0,54,0.00,,---,0.00,VWS V14.01,2013-03-18 04:55:00,
2013-03-17 21:00:00,12.5,-1.0,30.33,SSW,199,0.0,1.0,54,0.00,,---,0.00,VWS V14.01,2013-03-18 05:00:00,
2013-03-17 21:05:00,12.5,-1.0,30.33,SSW,199,0.0,0.0,54,0.00,,---,0.00,VWS V14.01,2013-03-18 05:05:00,
2013-03-17 21:10:00,12.4,-0.7,30.33,SSW,199,0.0,0.0,55,0.00,,---,0.00,VWS V14.01,2013-03-18 05:10:00,
2013-03-17 21:15:00,12.4,-0.7,30.33,SSW,199,0.0,0.0,55,0.00,,---,0.00,VWS V14.01,2013-03-18 05:15:00,
2013-03-17 21:20:00,12.4,-0.7,30.33,SSW,199,0.0,0.0,55,0.00,,---,0.00,VWS V14.01,2013-03-18 05:20:00,
2013-03-17 21:25:00,12.3,-0.8,30.33,SSW,199,0.0,0.0,55,0.00,,---,0.00,VWS V14.01,2013-03-18 05:25:00,
2013-03-17 21:30:00,12.1,-1.0,30.33,SSW,199,0.0,0.0,55,0.00,,---,0.00,VWS V14.01,2013-03-18 05:30:00,
2013-03-17 21:35:00,12.1,-1.0,30.33,SSW,199,0.0,0.0,55,0.00,,---,0.00,VWS V14.01,2013-03-18 05:35:00,
2013-03-17 21:40:00,11.9,-1.1,30.33,SSW,199,0.0,0.0,55,0.00,,---,0.00,VWS V14.01,2013-03-18 05:40:00,
2013-03-17 21:45:00,12.0,-1.1,30.33,SSW,199,0.0,0.0,55,0.00,,---,0.00,VWS V14.01,2013-03-18 05:45:00,
2013-03-17 21:50:00,12.1,-1.0,30.33,SSW,199,0.0,0.0,55,0.00,,---,0.00,VWS V14.01,2013-03-18 05:50:00,
2013-03-17 21:55:00,11.9,-1.1,30.33,SSW,199,0.0,0.0,55,0.00,,---,0.00,VWS V14.01,2013-03-18 05:55:00,
2013-03-17 22:00:00,11.7,-1.0,30.32,SSW,199,0.0,0.0,56,0.00,,---,0.00,VWS V14.01,2013-03-18 06:00:00,
2013-03-17 22:05:00,11.6,-1.0,30.32,SSW,199,0.0,0.0,56,0.00,,---,0.00,VWS V14.01,2013-03-18 06:05:00,
2013-03-17 22:10:00,11.3,-1.3,30.32,SSW,199,0.0,0.0,56,0.00,,---,0.00,VWS V14.01,2013-03-18 06:10:00,
2013-03-17 22:15:00,11.2,-1.4,30.32,SSW,199,0.0,0.0,56,0.00,,---,0.00,VWS V14.01,2013-03-18 06:15:00,
2013-03-17 22:20:00,11.0,-1.2,30.32,SSW,199,0.0,0.0,57,0.00,,---,0.00,VWS V14.01,2013-03-18 06:20:00,
2013-03-17 22:25:00,10.8,-1.4,30.32,SSW,199,0.0,0.0,57,0.00,,---,0.00,VWS V14.01,2013-03-18 06:25:00,
2013-03-17 22:30:00,10.9,-1.3,30.32,SSW,199,0.0,1.0,57,0.00,,---,0.00,VWS V14.01,2013-03-18 06:30:00,
2013-03-17 22:35:00,11.0,-1.2,30.32,SSW,199,0.0,1.0,57,0.00,,---,0.00,VWS V14.01,2013-03-18 06:35:00,
2013-03-17 22:40:00,11.0,-1.2,30.32,SSW,199,0.0,1.0,57,0.00,,---,0.00,VWS V14.01,2013-03-18 06:40:00,
2013-03-17 22:45:00,11.1,-1.1,30.32,SSW,199,0.0,1.0,57,0.00,,---,0.00,VWS V14.01,2013-03-18 06:45:00,
2013-03-17 22:50:00,11.0,-1.2,30.31,SSW,199,0.0,1.0,57,0.00,,---,0.00,VWS V14.01,2013-03-18 06:50:00,
2013-03-17 22:55:00,10.9,-1.3,30.31,SSW,199,0.0,1.0,57,0.00,,---,0.00,VWS V14.01,2013-03-18 06:55:00,
2013-03-17 23:00:00,10.9,-1.3,30.31,SSW,199,0.0,1.0,57,0.00,,---,0.00,VWS V14.01,2013-03-18 07:00:00,
2013-03-17 23:05:00,10.9,-1.3,30.31,SSW,199,0.0,0.0,57,0.00,,---,0.00,VWS V14.01,2013-03-18 07:05:00,
2013-03-17 23:10:00,10.8,-1.4,30.31,SSW,199,0.0,0.0,57,0.00,,---,0.00,VWS V14.01,2013-03-18 07:10:00,
2013-03-17 23:15:00,10.7,-1.5,30.30,SSW,199,0.0,0.0,57,0.00,,---,0.00,VWS V14.01,2013-03-18 07:15:00,
2013-03-17 23:20:00,10.7,-1.5,30.30,SSW,199,0.0,1.0,57,0.00,,---,0.00,VWS V14.01,2013-03-18 07:20:00,
2013-03-17 23:24:00,10.7,-1.5,30.30,SSW,199,0.0,1.0,57,0.00,,---,0.00,VWS V14.01,2013-03-18 07:24:00,
2013-03-17 23:29:00,10.7,-1.5,30.30,SSW,199,1.0,1.0,57,0.00,,---,0.00,VWS V14.01,2013-03-18 07:29:00,
2013-03-17 23:30:00,10.7,-1.5,30.30,SSW,199,1.0,2.0,57,0.00,,---,0.00,VWS V14.01,2013-03-18 07:30:00,
2013-03-17 23:34:00,10.8,-1.4,30.30,SSW,199,0.0,1.0,57,0.00,,---,0.00,VWS V14.01,2013-03-18 07:34:00,
2013-03-17 23:39:00,10.9,-1.3,30.29,SSW,199,0.0,1.0,57,0.00,,---,0.00,VWS V14.01,2013-03-18 07:39:00,
2013-03-17 23:44:00,11.2,-1.4,30.29,SSW,199,0.0,1.0,56,0.00,,---,0.00,VWS V14.01,2013-03-18 07:44:00,
2013-03-17 23:49:00,11.2,-1.4,30.29,SSW,199,0.0,1.0,56,0.00,,---,0.00,VWS V14.01,2013-03-18 07:49:00,
2013-03-17 23:54:00,11.3,-1.3,30.29,SSW,199,0.0,1.0,56,0.00,,---,0.00,VWS V14.01,2013-03-18 07:54:00,
2013-03-17 23:59:00,11.2,-1.4,30.29,SSW,199,0.0,1.0,56,0.00,,---,0.00,VWS V14.01,2013-03-18 07:59:00,